GW4332 Weather Reports


time (UTC)temp
F
wind
direction
speed
knots
gust
knots
rain 1hr
in
rain 24hr
in
rain mn
in
humidity
%
barometer
mb
20260506051030 51 37 7.8 12.2 0.00 0.00 0.00 83 1008.3
20260506045029 51 31 7.8 12.2 0.00 0.00 0.00 83 1008.2
20260506044029 50 40 7.8 11.3 0.00 0.00 0.00 83 1008.3
20260506043030 50 37 8.7 13.0 0.00 0.00 0.00 83 1008.3
20260506042030 50 36 7.0 11.3 0.00 0.00 0.00 83 1008.3
20260506041030 50 32 8.7 13.0 0.00 0.00 0.00 83 1008.2
20260506040029 50 35 8.7 13.9 0.00 0.00 0.00 83 1008.2
20260506035029 50 32 7.8 12.2 0.00 0.00 0.00 83 1008.3
20260506034030 50 45 7.8 11.3 0.00 0.00 0.00 83 1008.3
20260506033030 50 38 7.8 13.0 0.00 0.00 0.00 83 1008.5
20260506032030 50 40 9.6 15.6 0.00 0.00 0.00 83 1008.5
20260506031030 50 38 9.6 15.6 0.00 0.00 0.00 83 1008.6
20260506030030 50 39 9.6 16.5 0.00 0.00 0.00 83 1008.7
20260506025029 50 36 8.7 13.9 0.00 0.00 0.00 83 1008.9
20260506024030 50 36 8.7 14.8 0.00 0.00 0.00 82 1008.9
20260506023030 50 43 8.7 13.9 0.00 0.00 0.00 82 1008.9
20260506022030 50 46 7.8 13.0 0.00 0.00 0.00 81 1009.0
20260506021029 51 37 7.8 12.2 0.00 0.00 0.00 80 1008.9
20260506020029 51 39 7.0 12.2 0.00 0.00 0.00 80 1008.9
20260506015030 50 43 7.8 12.2 0.00 0.00 0.00 79 1008.9
20260506014030 50 44 7.0 12.2 0.00 0.00 0.00 79 1009.0
20260506013030 50 46 9.6 14.8 0.00 0.00 0.00 79 1009.1
20260506012029 50 47 7.8 13.9 0.00 0.00 0.00 79 1009.1
20260506011029 50 41 8.7 16.5 0.00 0.00 0.00 79 1009.1
20260506010030 51 45 9.6 14.8 0.00 0.00 0.00 79 1009.3
20260506005030 51 50 7.8 12.2 0.00 0.00 0.00 78 1009.4
20260506004030 51 41 10.4 16.5 0.00 0.00 0.00 78 1009.5
20260506003030 51 41 9.6 16.5 0.00 0.00 0.00 78 1009.5
20260506002029 51 39 8.7 15.6 0.00 0.00 0.00 78 1009.6
20260506001030 51 49 9.6 18.2 0.00 0.00 0.00 78 1009.7
20260506000030 50 45 8.7 16.5 0.00 0.00 0.00 78 1009.7
20260505235030 50 35 8.7 14.8 0.00 0.00 0.00 79 1009.9
20260505234029 50 36 7.8 14.8 0.00 0.00 0.00 79 1010.0
20260505233029 50 36 8.7 13.0 0.00 0.00 0.00 79 1010.0
20260505232030 50 33 8.7 15.6 0.00 0.00 0.00 79 1010.1
20260505231030 50 37 7.8 12.2 0.00 0.00 0.00 80 1010.1
20260505230030 50 43 8.7 13.9 0.00 0.00 0.00 80 1010.1
20260505225030 50 43 8.7 14.8 0.00 0.00 0.00 80 1010.2
20260505224030 50 49 9.6 14.8 0.00 0.00 0.00 80 1010.2
20260505223029 50 45 8.7 13.9 0.00 0.00 0.00 80 1010.6
20260505222029 50 50 8.7 13.9 0.00 0.00 0.00 80 1010.6
20260505221029 50 39 8.7 14.8 0.00 0.00 0.00 80 1010.6
20260505220029 50 48 8.7 13.0 0.00 0.00 0.00 79 1010.7
20260505215029 50 47 9.6 14.8 0.00 0.00 0.00 79 1010.6
20260505214030 51 43 7.0 12.2 0.00 0.00 0.00 79 1010.7
20260505213030 51 49 8.7 13.9 0.00 0.00 0.00 79 1010.7
20260505212030 51 40 8.7 13.9 0.00 0.00 0.00 78 1010.7
20260505211030 51 47 7.8 13.9 0.00 0.00 0.00 78 1010.7
20260505210030 51 34 9.6 15.6 0.00 0.00 0.00 77 1010.8
20260505205030 51 39 9.6 15.6 0.00 0.00 0.00 76 1010.9
20260505204030 51 42 7.8 15.6 0.00 0.00 0.00 76 1010.9
20260505203030 51 61 8.7 15.6 0.00 0.00 0.00 74 1011.1
20260505202029 51 46 7.8 12.2 0.00 0.00 0.00 73 1011.0
20260505201029 51 46 7.8 14.8 0.00 0.00 0.00 71 1011.0
20260505200030 51 39 7.8 14.8 0.00 0.00 0.00 70 1010.9
20260505195030 51 54 6.1 12.2 0.00 0.00 0.00 70 1010.8
20260505194030 51 40 7.8 12.2 0.00 0.00 0.00 70 1010.7
20260505193030 52 31 7.8 13.0 0.00 0.00 0.00 70 1010.6
20260505192030 52 40 9.6 16.5 0.00 0.00 0.00 70 1010.6
20260505191030 52 47 7.8 13.0 0.00 0.00 0.00 70 1010.5
20260505190030 53 41 7.8 14.8 0.00 0.00 0.00 71 1010.3
20260505185029 53 36 7.8 14.8 0.00 0.00 0.00 70 1010.3
20260505184029 53 42 7.0 12.2 0.00 0.00 0.00 71 1010.2
20260505183030 53 31 7.8 13.0 0.00 0.00 0.00 71 1010.2
20260505182030 53 44 7.8 13.9 0.00 0.00 0.00 70 1010.2
20260505181030 54 31 7.8 12.2 0.00 0.00 0.00 71 1010.3
20260505180030 54 43 7.8 13.0 0.00 0.00 0.00 69 1010.3
20260505175029 54 40 7.8 13.9 0.00 0.00 0.00 68 1010.3
20260505174029 55 22 7.8 12.2 0.00 0.00 0.00 68 1010.4
20260505173030 55 40 7.8 13.9 0.00 0.00 0.00 68 1010.3
20260505172030 55 44 7.8 13.9 0.00 0.00 0.00 67 1010.5
20260505171030 55 38 8.7 15.6 0.00 0.00 0.00 68 1010.3
20260505170030 55 29 7.0 13.0 0.00 0.00 0.00 68 1010.4
20260505165030 55 39 7.0 13.0 0.00 0.00 0.00 68 1010.3
20260505164030 56 41 7.8 12.2 0.00 0.00 0.00 67 1010.4
20260505163030 56 40 6.1 11.3 0.00 0.00 0.00 67 1010.4
20260505162030 56 36 7.8 13.0 0.00 0.00 0.00 66 1010.4
20260505161029 56 46 7.0 14.8 0.00 0.00 0.00 67 1010.5
20260505153029 57 5 9.6 16.5 0.00 0.00 0.00 68 1010.4
20260505152030 57 347 8.7 14.8 0.00 0.00 0.00 69 1010.4
20260505151030 57 14 9.6 16.5 0.00 0.00 0.00 68 1010.4
20260505125030 57 1 9.6 14.8 0.00 0.00 0.00 68 1011.1
20260505124030 57 18 9.6 13.9 0.00 0.00 0.00 68 1011.1
20260505123030 56 13 8.7 13.9 0.00 0.00 0.00 70 1011.2
20260505122029 56 358 7.8 13.0 0.00 0.00 0.00 69 1011.3
20260505121029 57 27 7.8 13.9 0.00 0.00 0.00 68 1011.2
20260505120030 56 38 5.2 12.2 0.00 0.00 0.00 67 1011.2
20260505115029 56 34 5.2 12.2 0.00 0.00 0.00 68 1011.4
20260505114030 55 55 6.1 13.0 0.00 0.00 0.00 68 1011.3
20260505113030 55 25 6.1 13.0 0.00 0.00 0.00 69 1011.4
20260505112030 55 14 6.1 11.3 0.00 0.00 0.00 70 1011.4
20260505111030 55 36 6.1 13.0 0.00 0.00 0.00 70 1011.5
20260505102029 52 58 6.1 10.4 0.00 0.00 0.00 75 1011.9
20260505101029 53 42 6.1 10.4 0.00 0.00 0.00 76 1012.0
20260505100029 52 41 6.1 12.2 0.00 0.00 0.00 77 1011.9
20260505095029 52 41 6.1 12.2 0.00 0.00 0.00 79 1012.0
20260505094030 52 43 5.2 11.3 0.00 0.00 0.00 79 1011.9
20260505093030 51 48 7.0 13.0 0.00 0.00 0.00 80 1012.1
20260505092030 51 52 5.2 11.3 0.00 0.00 0.00 82 1012.1
20260505091030 51 55 7.0 11.3 0.00 0.00 0.00 83 1011.9
20260505090030 50 47 7.8 12.2 0.00 0.00 0.00 85 1012.0
20260505085030 50 45 7.8 12.2 0.00 0.00 0.00 85 1011.8
20260505084030 50 48 7.0 11.3 0.00 0.00 0.00 86 1012.0
20260505083030 50 56 7.8 13.0 0.00 0.00 0.00 86 1012.1
20260505082030 50 57 7.8 13.0 0.00 0.00 0.00 87 1012.1
20260505081030 49 44 8.7 12.2 0.00 0.00 0.00 87 1012.3
20260505080030 49 53 6.1 11.3 0.00 0.00 0.00 88 1012.3
20260505075029 49 63 5.2 11.3 0.00 0.00 0.00 88 1012.3
20260505074030 49 53 5.2 9.6 0.00 0.00 0.00 88 1012.4
20260505073030 49 64 7.0 11.3 0.00 0.00 0.00 88 1012.4
20260505072030 49 55 5.2 10.4 0.00 0.00 0.00 88 1012.5
20260505071030 49 63 4.3 7.8 0.00 0.00 0.00 88 1012.6
20260505070030 48 64 5.2 12.2 0.00 0.00 0.00 88 1012.7
20260505065029 49 63 5.2 11.3 0.00 0.00 0.00 88 1012.6
20260505064029 49 67 5.2 10.4 0.00 0.00 0.00 88 1012.6
20260505063030 48 74 5.2 10.4 0.00 0.00 0.00 88 1012.5
20260505062030 49 54 5.2 10.4 0.00 0.00 0.00 88 1012.5
20260505061030 48 58 6.1 11.3 0.00 0.00 0.00 88 1012.4
20260505060030 48 52 5.2 10.4 0.00 0.00 0.00 88 1012.4